Chillicothe, MO

7:57 PM CST on December 04, 2016 (GMT -0600)
Chillicothe

Weather History for KCDJ - October, 2011

Change the Weather History Date:

Thursday, October 6, 2011

  Actual Average (KIRK) Record (KIRK)
Temperature  
Mean Temperature 68 °F 56 °F  
Max Temperature 84 °F 68 °F 91 °F (1963)
Min Temperature 51 °F 45 °F 24 °F (1935)
Degree Days  
Heating Degree Days 0 9  
Month to date heating degree days 51  
Since 1 July heating degree days 158  
Cooling Degree Days 2 1  
Month to date cooling degree days 6  
Year to date cooling degree days 933  
Growing Degree Days 18 (Base 50)    
Moisture  
Dew Point 47 °F    
Average Humidity 53    
Maximum Humidity 83    
Minimum Humidity 24    
Precipitation  
Precipitation 0.00 in 0.09 in 1.87 in (1951)
Month to date precipitation 0.67  
Year to date precipitation 32.19  
Sea Level Pressure  
Sea Level Pressure 30.07 in    
Wind  
Wind Speed 4 mph (SE)    
Max Wind Speed 14 mph    
Max Gust Speed 24 mph    
T = Trace of Precipitation, MM = Missing Value Source: NWS Daily Summary

Daily Weather History Graph

Daily Weather History Graph

Search for Another Location

Airport or City:

Trip Planner

Search our weather history database for the weather conditions in past years. The results will help you decide how hot, cold, wet, or windy it might be!

Date:

Astronomy

Oct. 06, 2011 Rise Set
Actual Time 7:15 AM CDT 6:49 PM CDT
Civil Twilight 6:48 AM CDT 7:16 PM CDT
Nautical Twilight 6:16 AM CDT 7:47 PM CDT
Astronomical Twilight 5:45 AM CDT 8:18 PM CDT
Moon 4:02 PM CDT (10/6) 2:04 AM CDT (10/6)
Length of Visible Light 12h 27m
Length of Day
11h 33m
Waxing Gibbous, 75% of the Moon is Illuminated
Oct 6
Waxing Gibbous
Oct 11
Full
Oct 19
Last Quarter
Oct 26
New
Nov 2
First Quarter

Hourly Weather History & Observations

Time (CDT) Temp. Dew Point Humidity Pressure Visibility Wind Dir Wind Speed Gust Speed Precip Events Conditions
12:52 AM 55.0 °F 45.0 °F 69% 30.09 in - Calm Calm - N/A   Unknown
1:52 AM 53.1 °F 46.0 °F 77% 30.10 in - Calm Calm - N/A   Unknown
2:52 AM 55.0 °F 45.0 °F 69% 30.09 in - Calm Calm - N/A   Unknown
3:52 AM 55.0 °F 45.0 °F 69% 30.09 in - Calm Calm - N/A   Unknown
4:52 AM 52.0 °F 46.0 °F 80% 30.09 in - SE 3.5 mph - N/A   Unknown
5:52 AM 52.0 °F 46.0 °F 80% 30.10 in - ESE 3.5 mph - N/A   Unknown
6:52 AM 51.1 °F 46.0 °F 83% 30.11 in - Calm Calm - N/A   Unknown
7:52 AM 53.1 °F 46.9 °F 80% 30.12 in - Calm Calm - N/A   Unknown
8:52 AM 59.0 °F 50.0 °F 72% 30.13 in - SE 4.6 mph - N/A   Unknown
9:52 AM 66.9 °F 51.1 °F 57% 30.12 in - SSE 8.1 mph - N/A   Unknown
10:52 AM 72.0 °F 50.0 °F 46% 30.11 in - SSE 8.1 mph - N/A   Unknown
11:52 AM 77.0 °F 48.9 °F 37% 30.09 in - Variable 6.9 mph - N/A   Unknown
1:52 PM 81.0 °F 45.0 °F 28% 30.05 in - SSE 11.5 mph 18.4 mph N/A   Unknown
2:52 PM 84.0 °F 44.1 °F 25% 30.02 in - SSE 9.2 mph 23.0 mph N/A   Unknown
3:52 PM 84.0 °F 44.1 °F 25% 30.01 in - SE 11.5 mph 24.2 mph N/A   Unknown
4:52 PM 82.9 °F 43.0 °F 24% 30.01 in - SSE 13.8 mph 20.7 mph N/A   Unknown
5:52 PM 81.0 °F 45.0 °F 28% 30.01 in - SE 9.2 mph 21.9 mph N/A   Unknown
6:52 PM 78.1 °F 46.0 °F 32% 30.01 in - SE 9.2 mph - N/A   Unknown
7:52 PM 75.0 °F 46.9 °F 37% 30.02 in - SE 6.9 mph - N/A   Unknown
8:52 PM 73.0 °F 48.9 °F 42% 30.03 in - SE 8.1 mph - N/A   Unknown
9:52 PM 72.0 °F 50.0 °F 46% 30.04 in - SSE 8.1 mph 16.1 mph N/A   Unknown
10:52 PM 71.1 °F 51.1 °F 49% 30.04 in - SSE 9.2 mph - N/A   Unknown
11:52 PM 69.1 °F 51.1 °F 53% 30.04 in - SSE 8.1 mph 19.6 mph N/A   Unknown